When you browse on this site, cookies collect data to enhance your experience and personalize the content and advertising you see.
Visit our Privacy Policy to learn more. By continuing to use the site, you agree to this use of cookies and data.

Tiempo cada hora Longaví

Hoy, 4 Agosto, Martes

Tiempo Temperatura Precipitaciones Viento Presión Humedad
00:00 +10°C° 0 mm 1 mps 751 mmHg 87%
01:00 +10°C° 0 mm 1 mps 751 mmHg 86%
02:00 +10°C° 0 mm 1 mps 751 mmHg 86%
03:00 +9°C° 0 mm 1 mps 750 mmHg 85%
04:00 +9°C° 0 mm 1 mps 750 mmHg 85%
05:00 +9°C° 0 mm 1 mps 750 mmHg 84%
06:00 +8°C° 0 mm 0 mps 750 mmHg 83%
07:00 +8°C° 0 mm 0 mps 750 mmHg 83%
08:00 +10°C° 0 mm 0 mps 751 mmHg 79%
09:00 +13°C° 0 mm 1 mps 751 mmHg 76%
10:00 +15°C° 0 mm 1 mps 751 mmHg 72%
11:00 +16°C° 0 mm 1 mps 750 mmHg 70%
12:00 +18°C° 0 mm 1 mps 750 mmHg 68%
13:00 +20°C° 0 mm 1 mps 750 mmHg 65%
14:00 +19°C° 0 mm 1 mps 750 mmHg 69%
15:00 +17°C° 0 mm 0 mps 749 mmHg 73%
16:00 +17°C° 0 mm 0 mps 749 mmHg 77%
17:00 +16°C° 0 mm 1 mps 750 mmHg 79%
18:00 +15°C° 0 mm 1 mps 750 mmHg 81%
19:00 +13°C° 0 mm 1 mps 750 mmHg 83%
20:00 +13°C° 0 mm 1 mps 750 mmHg 83%
21:00 +13°C° 0 mm 1 mps 750 mmHg 82%
22:00 +14°C° 0 mm 1 mps 750 mmHg 82%
23:00 +13°C° 1.3 mm 2 mps 750 mmHg 86%

Mañana, 5 Agosto, Miércoles

Tiempo Temperatura Precipitaciones Viento Presión Humedad
00:00 +13°C° 1.3 mm 2 mps 750 mmHg 91%
01:00 +12°C° 1.3 mm 3 mps 750 mmHg 95%
02:00 +13°C° 2.2 mm 2 mps 750 mmHg 96%
03:00 +13°C° 2.2 mm 2 mps 750 mmHg 96%
04:00 +13°C° 2.2 mm 2 mps 750 mmHg 97%
05:00 +12°C° 0.4 mm 2 mps 751 mmHg 96%
06:00 +12°C° 0.4 mm 1 mps 752 mmHg 94%
07:00 +11°C° 0.4 mm 1 mps 752 mmHg 93%
08:00 +12°C° 0.1 mm 1 mps 753 mmHg 89%
09:00 +13°C° 0.1 mm 1 mps 754 mmHg 85%
10:00 +14°C° 0.1 mm 1 mps 754 mmHg 80%
11:00 +14°C° 0.3 mm 2 mps 754 mmHg 77%
12:00 +15°C° 0.3 mm 2 mps 754 mmHg 74%
13:00 +16°C° 0.3 mm 2 mps 754 mmHg 71%
14:00 +15°C° 0.2 mm 2 mps 755 mmHg 75%
15:00 +15°C° 0.2 mm 2 mps 755 mmHg 79%
16:00 +14°C° 0.2 mm 2 mps 755 mmHg 83%
17:00 +12°C° 0 mm 3 mps 755 mmHg 84%
18:00 +10°C° 0 mm 3 mps 756 mmHg 86%
19:00 +9°C° 0 mm 3 mps 757 mmHg 87%
20:00 +8°C° 0 mm 3 mps 757 mmHg 87%
21:00 +7°C° 0 mm 3 mps 757 mmHg 87%
22:00 +7°C° 0 mm 3 mps 757 mmHg 87%
23:00 +5°C° 0 mm 3 mps 757 mmHg 87%

Pasado mañana, 6 Agosto, Jueves

Tiempo Temperatura Precipitaciones Viento Presión Humedad
00:00 +5°C° 0 mm 4 mps 756 mmHg 87%
01:00 +5°C° 0 mm 4 mps 756 mmHg 87%
02:00 +4°C° 0 mm 4 mps 755 mmHg 85%
03:00 +4°C° 0 mm 4 mps 755 mmHg 84%
04:00 +4°C° 0 mm 4 mps 754 mmHg 83%
05:00 +3°C° 0 mm 3 mps 754 mmHg 82%
06:00 +3°C° 0 mm 3 mps 754 mmHg 81%
07:00 +2°C° 0 mm 3 mps 754 mmHg 80%
08:00 +4°C° 0 mm 3 mps 753 mmHg 76%
09:00 +6°C° 0 mm 4 mps 753 mmHg 72%
10:00 +8°C° 0 mm 4 mps 752 mmHg 68%
11:00 +10°C° 0 mm 4 mps 752 mmHg 66%
12:00 +11°C° 0 mm 4 mps 751 mmHg 65%
13:00 +12°C° 0 mm 4 mps 751 mmHg 63%
14:00 +12°C° 0 mm 4 mps 750 mmHg 67%
15:00 +12°C° 0 mm 4 mps 750 mmHg 70%
16:00 +11°C° 0 mm 3 mps 750 mmHg 74%
17:00 +10°C° 0 mm 3 mps 750 mmHg 77%
18:00 +8°C° 0 mm 3 mps 750 mmHg 80%
19:00 +6°C° 0 mm 2 mps 751 mmHg 83%
20:00 +6°C° 0 mm 2 mps 751 mmHg 85%
21:00 +5°C° 0 mm 2 mps 751 mmHg 86%
22:00 +5°C° 0 mm 2 mps 751 mmHg 88%
23:00 +4°C° 0 mm 2 mps 751 mmHg 89%

7 Agosto, Viernes

Tiempo Temperatura Precipitaciones Viento Presión Humedad
00:00 +4°C° 0 mm 2 mps 751 mmHg 90%
01:00 +4°C° 0 mm 2 mps 750 mmHg 90%
02:00 +4°C° 0 mm 2 mps 750 mmHg 90%
03:00 +4°C° 0 mm 2 mps 750 mmHg 89%
04:00 +4°C° 0 mm 2 mps 750 mmHg 89%
05:00 +3°C° 0 mm 2 mps 750 mmHg 89%
06:00 +4°C° 0 mm 1 mps 750 mmHg 89%
07:00 +4°C° 0 mm 1 mps 750 mmHg 90%
08:00 +6°C° 0 mm 1 mps 750 mmHg 84%
09:00 +8°C° 0 mm 1 mps 750 mmHg 79%
10:00 +8°C° 0 mm 2 mps 750 mmHg 73%
11:00 +10°C° 0 mm 2 mps 750 mmHg 70%
12:00 +12°C° 0 mm 2 mps 750 mmHg 67%
13:00 +13°C° 0 mm 2 mps 750 mmHg 63%
14:00 +13°C° 0 mm 2 mps 749 mmHg 68%
15:00 +13°C° 0 mm 1 mps 749 mmHg 73%
16:00 +12°C° 0 mm 1 mps 749 mmHg 78%
17:00 +11°C° 0 mm 1 mps 749 mmHg 80%
18:00 +10°C° 0 mm 1 mps 750 mmHg 82%
19:00 +9°C° 0 mm 1 mps 750 mmHg 84%
20:00 +9°C° 0 mm 1 mps 750 mmHg 84%
21:00 +9°C° 0 mm 1 mps 750 mmHg 83%
22:00 +9°C° 0 mm 1 mps 750 mmHg 83%
23:00 +8°C° 0 mm 1 mps 750 mmHg 83%

8 Agosto, Sábado

Tiempo Temperatura Precipitaciones Viento Presión Humedad
00:00 +8°C° 0 mm 1 mps 750 mmHg 83%
01:00 +8°C° 0 mm 1 mps 750 mmHg 83%
02:00 +8°C° 0 mm 1 mps 750 mmHg 82%
03:00 +8°C° 0 mm 1 mps 749 mmHg 82%
04:00 +7°C° 0 mm 0 mps 749 mmHg 82%
05:00 +7°C° 0 mm 0 mps 749 mmHg 82%
06:00 +7°C° 0 mm 0 mps 750 mmHg 83%
07:00 +7°C° 0 mm 1 mps 750 mmHg 83%
08:00 +9°C° 0 mm 1 mps 750 mmHg 79%
09:00 +11°C° 0 mm 1 mps 750 mmHg 75%
10:00 +12°C° 0 mm 1 mps 750 mmHg 71%
11:00 +13°C° 0 mm 1 mps 750 mmHg 70%
12:00 +14°C° 0 mm 1 mps 749 mmHg 69%
13:00 +15°C° 0 mm 1 mps 749 mmHg 68%
14:00 +14°C° 0 mm 1 mps 749 mmHg 71%
15:00 +14°C° 0 mm 1 mps 749 mmHg 75%
16:00 +14°C° 0 mm 1 mps 749 mmHg 79%
17:00 +13°C° 0 mm 1 mps 750 mmHg 81%
18:00 +10°C° 0 mm 0 mps 750 mmHg 83%
19:00 +9°C° 0 mm 0 mps 750 mmHg 85%
20:00 +9°C° 0 mm 0 mps 750 mmHg 85%
21:00 +10°C° 0 mm 1 mps 750 mmHg 86%
22:00 +10°C° 0 mm 1 mps 751 mmHg 86%
23:00 +9°C° 0 mm 1 mps 751 mmHg 85%

9 Agosto, Domingo

Tiempo Temperatura Precipitaciones Viento Presión Humedad
00:00 +9°C° 0 mm 1 mps 751 mmHg 85%
01:00 +9°C° 0 mm 1 mps 751 mmHg 84%
02:00 +9°C° 0.1 mm 1 mps 751 mmHg 85%
03:00 +9°C° 0.1 mm 1 mps 751 mmHg 85%
04:00 +10°C° 0.1 mm 1 mps 751 mmHg 85%
05:00 +10°C° 0.1 mm 1 mps 751 mmHg 85%
06:00 +10°C° 0.1 mm 1 mps 752 mmHg 85%
07:00 +10°C° 0.1 mm 1 mps 752 mmHg 84%
08:00 +11°C° 0 mm 1 mps 752 mmHg 82%
09:00 +12°C° 0 mm 2 mps 752 mmHg 80%
10:00 +13°C° 0 mm 2 mps 752 mmHg 78%
11:00 +14°C° 0 mm 1 mps 752 mmHg 77%
12:00 +14°C° 0 mm 1 mps 752 mmHg 76%
13:00 +15°C° 0 mm 1 mps 751 mmHg 75%
14:00 +15°C° 0.2 mm 1 mps 752 mmHg 78%
15:00 +14°C° 0.2 mm 1 mps 752 mmHg 81%
16:00 +14°C° 0.2 mm 1 mps 752 mmHg 84%
17:00 +13°C° 0.1 mm 1 mps 752 mmHg 86%
18:00 +12°C° 0.1 mm 2 mps 752 mmHg 88%
19:00 +10°C° 0.1 mm 2 mps 753 mmHg 90%
20:00 +9°C° 0 mm 2 mps 753 mmHg 90%
21:00 +10°C° 0 mm 1 mps 753 mmHg 89%
22:00 +10°C° 0 mm 1 mps 753 mmHg 89%
23:00 +9°C° 0 mm 1 mps 753 mmHg 89%
Mostrar más